Wind_Speed
29 28 24 21 17 23 22 16 6 8 14 27 21 19 10 10 21 22 10 9 11 19 23 16 14 19 3 19 14 21 12 7 8 13 5 10 19 17 18 9 9 13 17 21
27 25 23 17 15 20 18 13 14 12 24 12 17 22 16 18 20 17 10 7 10 20 20 14 9 12 11 11 15 16 16 7 3 3 6 13 19 21 22 22 26 30 15 19
25 26 21 13 12 17 16 8 10 13 20 18 13 18 17 15 13 11 8 10 14 22 15 9 13 11 11 12 13 16 10 8 10 7 2 2 10 14 21 27 27 31 44 53
24 25 19 10 9 14 11 12 12 14 11 10 13 17 11 17 16 10 11 13 12 16 10 10 9 9 11 12 13 13 12 12 14 18 19 18 21 24 23 28 37 31 52 39
26 21 17 7 6 10 7 15 8 6 12 15 13 13 15 18 17 17 8 13 14 7 9 4 10 10 9 8 14 13 14 9 8 18 20 19 25 27 30 34 36 41 46 42
30 18 14 5 2 5 5 6 7 6 10 15 13 17 10 10 16 15 10 10 7 4 6 7 5 8 9 8 10 12 15 12 6 7 7 11 17 21 18 23 20 20 22 15
30 17 10 3 1 4 5 3 7 7 8 12 15 12 13 13 13 13 16 10 4 5 7 6 6 7 10 11 13 12 11 10 9 10 14 5 3 12 6 12 9 10 6 13
28 19 6 2 4 4 3 4 8 6 5 11 14 12 10 12 17 15 10 10 11 9 6 4 2 5 10 15 15 17 13 13 5 5 10 15 4 13 11 8 5 5 3 6
26 22 4 5 5 4 5 6 5 9 7 12 14 12 11 13 12 12 11 12 10 11 9 6 4 4 3 4 2 12 19 16 9 4 5 3 5 11 14 11 7 8 2 8
23 22 7 8 8 9 9 7 7 9 4 10 15 14 14 12 13 11 13 13 12 11 10 8 7 6 7 5 6 8 19 20 22 14 7 10 8 10 8 3 5 5 6 6
21 20 11 11 12 13 12 10 8 4 6 10 16 16 10 8 8 9 7 10 15 10 11 7 7 8 9 9 7 9 19 14 11 14 8 8 1 3 2 7 7 10 7 4
19 19 13 14 15 14 14 11 12 10 8 8 9 13 11 10 11 13 10 11 4 6 9 11 8 8 7 11 6 12 12 15 10 13 7 5 5 5 8 10 11 10 10 12
19 17 13 16 19 18 19 16 16 13 7 9 9 7 8 8 13 14 14 15 12 13 12 12 12 9 9 9 15 10 16 13 16 11 3 8 10 9 12 18 13 11 11 10
19 14 14 17 22 21 20 15 13 11 11 6 7 8 9 10 11 13 16 17 17 18 17 17 16 15 11 9 10 11 13 11 12 17 13 12 13 9 10 8 7 8 9 8
15 12 13 18 23 23 22 23 15 11 8 6 7 8 8 11 11 17 17 20 16 11 15 20 16 16 10 13 15 18 16 15 16 9 10 8 8 7 7 5 4 4 5 7
12 9 14 21 23 23 24 19 14 12 11 4 4 5 9 10 13 13 14 16 19 15 14 17 21 17 12 8 10 18 17 20 20 18 20 14 11 8 7 6 5 4 5 6
10 9 16 24 23 21 22 18 16 16 10 8 7 6 5 7 8 10 9 9 11 17 16 16 13 17 20 22 25 13 10 9 12 14 16 18 16 12 10 9 8 8 7 7
4 11 19 22 20 21 17 17 13 15 9 4 5 6 7 9 9 8 2 6 10 15 15 13 13 14 15 14 9 11 16 14 11 13 16 18 18 14 12 11 12 15 10 14
10 15 21 22 20 18 16 12 10 12 11 5 6 8 5 5 11 7 1 6 8 10 14 13 11 17 14 3 7 10 11 12 14 15 17 18 20 21 20 15 15 15 7 7
17 22 22 20 18 14 14 8 5 11 16 14 16 13 10 9 9 9 4 2 4 5 7 9 13 24 22 23 21 13 12 8 10 12 13 14 16 17 16 18 17 12 12 11
13 14 18 23 17 18 9 7 7 8 5 10 14 11 12 13 11 8 5 3 2 2 3 4 4 5 8 7 12 21 15 8 9 7 8 11 12 12 10 15 11 8 10 16
9 18 25 19 17 5 5 6 6 7 6 6 5 5 6 7 7 4 4 4 3 3 3 3 3 6 11 11 6 13 17 14 10 9 6 7 6 6 5 8 8 11 12 10
14 25 19 9 8 7 6 7 5 5 5 3 2 2 0 3 3 3 4 2 4 4 2 2 6 14 14 10 1 6 9 8 8 12 10 5 7 10 10 11 11 11 12 14
20 13 10 8 7 7 10 10 8 9 5 4 4 3 1 1 3 4 3 4 3 2 1 6 13 12 10 5 5 13 13 12 10 14 14 9 7 8 9 11 13 15 14 14
12 10 8 11 9 8 8 12 12 11 9 6 4 5 4 4 5 4 4 3 2 1 2 9 12 13 12 9 5 4 15 15 15 12 12 13 16 15 15 13 14 17 19 16
12 10 8 8 10 14 11 9 8 10 11 8 7 5 4 6 5 4 4 2 3 4 2 9 9 10 12 12 10 6 3 10 15 19 18 16 16 17 17 17 18 19 20 20
15 15 16 10 10 12 15 15 11 10 9 9 8 5 6 5 5 4 4 4 4 4 6 7 8 10 11 11 11 9 6 6 8 13 18 19 18 18 18 18 19 22 24 24
Wind_Direction
342 340 340 341 351 359 355 358 360 98 159 156 169 174 167 178 157 157 160 156 171 171 167 169 168 182 204 179 181 189 189 189 215 231 229 215 228 225 222 226 224 233 279 278
343 342 341 347 356 357 349 37 124 142 158 164 169 179 150 166 160 157 136 154 148 160 151 151 156 152 198 175 173 178 191 212 217 157 233 232 229 232 236 242 255 260 272 263
343 344 342 352 356 1 346 92 142 168 180 141 177 187 209 160 153 133 143 134 135 149 162 135 159 169 175 177 170 196 189 225 226 271 339 253 227 235 235 234 241 255 250 273
342 343 340 345 359 10 40 88 157 152 204 202 188 166 199 166 165 142 152 143 142 150 148 132 160 165 165 174 195 210 220 250 254 265 271 267 261 262 252 240 247 247 275 279
345 338 338 331 2 24 47 98 114 144 166 161 158 184 199 176 169 145 128 146 151 134 142 134 174 179 190 206 217 215 233 259 280 278 282 270 269 260 253 254 257 257 270 287
346 337 336 314 4 26 136 109 93 116 151 172 181 190 207 173 181 190 161 150 162 143 193 213 202 202 203 222 212 216 234 244 287 284 296 287 271 259 256 259 265 272 275 318
347 343 335 308 215 99 139 161 144 129 161 187 197 202 195 191 186 206 207 204 155 223 234 244 248 231 235 239 231 234 236 233 247 280 294 233 270 319 290 246 257 258 319 337
346 341 331 231 213 160 157 161 179 182 178 187 188 191 186 197 208 193 204 221 219 229 222 237 240 266 265 270 248 233 224 219 240 251 282 288 301 330 1 358 219 268 323 357
345 341 306 209 202 183 161 145 173 182 181 197 186 191 178 194 200 201 207 222 246 235 229 229 215 229 227 270 244 231 223 226 244 278 293 275 355 320 335 326 248 227 193 0
342 334 297 209 194 174 174 177 143 166 185 173 169 164 180 190 196 220 236 221 220 233 226 237 233 248 212 212 199 191 202 218 230 242 270 278 272 292 329 330 336 279 210 348
337 324 304 209 197 180 180 163 187 152 130 175 180 186 197 188 186 204 228 212 225 219 226 222 236 241 231 234 233 216 196 198 212 221 242 257 267 312 328 312 317 319 327 276
331 314 301 214 200 192 180 148 177 200 163 175 175 184 197 194 204 215 227 229 190 232 227 234 217 231 229 234 230 212 205 196 206 205 232 219 236 291 308 305 299 303 301 275
323 306 284 213 197 196 192 187 173 176 184 165 176 207 225 234 227 241 253 255 259 269 252 251 230 224 221 219 234 226 227 225 229 247 273 276 268 278 292 293 282 293 307 292
316 293 267 209 195 194 193 185 188 187 180 185 219 236 233 238 242 251 254 263 266 265 247 234 226 227 222 232 233 226 232 244 246 259 271 270 281 299 301 301 268 286 311 297
309 281 248 200 188 192 196 193 188 186 193 218 237 257 259 265 253 266 269 257 255 243 216 215 225 231 237 251 250 250 242 240 247 259 257 256 258 317 318 285 295 256 326 334
304 267 221 187 181 188 196 193 209 190 204 209 274 260 286 291 279 267 278 251 242 225 213 219 228 232 233 255 256 258 261 253 253 245 241 241 245 276 310 308 279 298 322 324
290 238 198 175 176 183 189 196 196 188 217 261 282 319 326 318 296 306 286 217 212 208 220 232 232 236 238 252 261 258 257 245 233 237 246 240 242 264 287 278 262 260 287 317
265 194 165 163 165 174 181 196 202 211 244 245 271 289 296 353 336 328 266 170 172 201 214 236 243 243 246 257 287 255 241 243 241 241 240 236 244 253 295 274 260 257 258 288
120 139 145 149 159 167 180 200 211 209 204 251 255 276 296 331 348 341 341 192 213 216 233 250 250 251 238 252 237 237 223 238 242 244 248 249 251 254 283 262 252 268 213 197
121 131 137 141 152 166 161 180 215 202 224 247 259 268 277 296 316 330 322 255 223 221 239 253 251 257 266 251 254 235 214 234 251 256 253 257 256 250 241 245 256 221 194 190
128 142 142 136 145 150 165 176 198 210 249 249 258 265 263 268 271 292 303 305 273 255 239 229 261 311 339 310 251 226 221 228 219 252 231 212 214 231 241 237 175 174 195 179
155 157 143 153 161 151 187 190 217 215 232 255 259 266 274 238 241 251 274 270 259 254 262 258 276 337 335 332 282 217 211 206 209 210 237 186 176 161 123 134 153 165 171 174
157 158 164 169 191 206 205 211 212 204 227 229 271 262 327 204 204 253 280 273 252 287 255 288 345 333 330 331 240 192 189 197 218 203 213 222 218 219 234 224 214 200 196 191
168 173 190 206 210 221 216 219 225 231 232 244 274 170 112 197 234 259 259 266 286 271 30 14 352 354 347 327 219 210 220 217 213 213 216 217 191 199 206 197 193 201 201 208
181 194 209 229 227 242 248 233 239 242 250 262 223 199 218 236 252 248 256 246 218 207 94 5 9 15 18 15 351 285 226 226 227 220 215 208 201 205 201 205 203 203 208 216
208 219 221 225 225 228 245 251 259 261 259 245 207 219 236 235 247 241 232 230 192 185 264 355 6 7 10 12 4 344 303 236 230 225 227 228 224 220 221 219 218 208 211 213
222 229 227 231 236 235 237 239 243 249 241 201 202 221 225 239 240 233 231 223 219 232 323 339 347 346 346 349 354 351 325 278 252 240 238 237 235 233 226 221 220 216 217 217
Height
2974 2968 2963 2958 2954 2951 2946 2940 2939 2939 2941 2946 2947 2951 2953 2959 2962 2964 2968 2972 2975 2979 2984 2988 2993 2997 2999 3002 3006 3009 3013 3016 3016 3015 3017 3018 3018 3021 3023 3023 3019 3017 3011 2985
2972 2967 2961 2957 2954 2950 2944 2942 2942 2944 2946 2949 2951 2954 2959 2962 2965 2967 2970 2972 2975 2980 2984 2990 2994 2997 2998 3001 3005 3008 3010 3012 3013 3014 3017 3015 3014 3016 3017 3019 3018 3009 3011 2982
2970 2965 2960 2957 2954 2951 2947 2945 2948 2950 2949 2952 2958 2959 2960 2963 2966 2968 2972 2973 2976 2982 2986 2988 2993 2995 2997 3000 3004 3005 3007 3008 3008 3007 3011 3010 3010 3010 3012 3013 3010 3002 2988 2977
2968 2964 2959 2956 2955 2952 2948 2946 2948 2950 2953 2955 2958 2962 2964 2964 2967 2970 2974 2976 2980 2983 2987 2990 2993 2995 2997 3000 3001 3004 3006 3005 3006 3005 3005 3005 3005 3004 3005 3004 2999 3000 2972 2985
2967 2963 2958 2956 2956 2954 2953 2951 2952 2953 2955 2958 2962 2963 2966 2967 2971 2973 2977 2979 2983 2986 2988 2991 2992 2994 2996 2998 2999 3002 3003 3003 3001 2999 2998 2997 2996 2995 2995 2993 2992 2989 2981 2973
2965 2961 2957 2956 2957 2955 2955 2956 2955 2954 2957 2959 2962 2964 2967 2969 2973 2976 2978 2981 2984 2986 2987 2988 2991 2993 2994 2995 2997 2999 3000 3000 3000 2995 2995 2995 2991 2985 2985 2983 2982 2981 2977 2973
2964 2959 2956 2955 2956 2957 2956 2957 2959 2959 2960 2959 2962 2964 2968 2971 2974 2976 2978 2981 2983 2985 2985 2987 2988 2990 2991 2992 2994 2996 2997 2998 3000 2996 2995 2989 2983 2981 2978 2977 2977 2976 2974 2972
2962 2959 2955 2955 2956 2957 2958 2958 2960 2959 2960 2962 2962 2966 2969 2971 2973 2976 2979 2980 2982 2982 2984 2985 2986 2987 2988 2987 2988 2991 2994 2996 2997 2996 2991 2985 2980 2979 2977 2975 2975 2973 2973 2971
2960 2958 2954 2953 2955 2956 2958 2958 2960 2960 2961 2962 2964 2967 2968 2971 2973 2975 2977 2980 2980 2981 2983 2984 2986 2986 2986 2986 2985 2986 2990 2993 2995 2994 2991 2983 2979 2978 2976 2975 2973 2972 2971 2969
2958 2957 2953 2953 2954 2955 2957 2958 2959 2960 2960 2961 2964 2967 2969 2970 2972 2975 2976 2977 2979 2980 2981 2983 2984 2984 2984 2984 2984 2984 2987 2990 2991 2993 2991 2980 2979 2977 2976 2975 2979 2970 2970 2969
2955 2955 2951 2951 2952 2954 2957 2958 2958 2960 2960 2962 2963 2966 2969 2970 2972 2974 2975 2977 2976 2978 2979 2980 2980 2980 2980 2981 2981 2979 2982 2986 2986 2990 2988 2981 2976 2976 2977 2976 2973 2971 2969 2968
2952 2951 2948 2948 2950 2952 2956 2957 2958 2960 2962 2964 2965 2967 2968 2970 2971 2972 2973 2973 2974 2975 2975 2976 2976 2977 2977 2977 2977 2977 2980 2978 2980 2979 2976 2974 2975 2975 2975 2973 2972 2971 2970 2968
2947 2946 2945 2945 2947 2951 2954 2957 2959 2961 2963 2965 2965 2967 2968 2968 2968 2970 2971 2970 2971 2972 2972 2973 2973 2973 2974 2974 2974 2974 2973 2974 2974 2975 2973 2973 2972 2973 2973 2971 2969 2968 2967 2965
2941 2940 2940 2941 2944 2949 2953 2956 2959 2961 2963 2964 2967 2965 2965 2966 2966 2966 2966 2966 2966 2967 2968 2969 2969 2970 2970 2970 2970 2970 2971 2970 2970 2969 2970 2971 2971 2970 2969 2967 2967 2966 2965 2963
2934 2934 2936 2937 2941 2946 2951 2956 2959 2961 2965 2964 2964 2964 2964 2963 2962 2962 2962 2961 2962 2962 2963 2964 2965 2966 2968 2966 2966 2964 2965 2966 2967 2969 2968 2969 2969 2969 2967 2967 2966 2965 2964 2963
2929 2929 2932 2934 2939 2944 2950 2955 2958 2961 2963 2964 2963 2963 2961 2959 2958 2957 2956 2956 2957 2959 2960 2961 2962 2964 2966 2963 2961 2961 2962 2963 2963 2964 2964 2966 2967 2967 2966 2965 2965 2965 2965 2964
2924 2926 2929 2932 2938 2943 2950 2955 2958 2960 2962 2963 2962 2960 2959 2957 2955 2953 2950 2950 2952 2955 2958 2958 2959 2961 2961 2959 2956 2958 2959 2958 2959 2960 2961 2963 2964 2964 2964 2964 2964 2964 2965 2964
2924 2926 2928 2933 2939 2945 2950 2953 2957 2960 2962 2963 2961 2959 2958 2956 2953 2951 2950 2950 2952 2954 2955 2956 2956 2957 2957 2954 2953 2953 2954 2955 2956 2957 2958 2959 2961 2961 2961 2962 2962 2962 2963 2963
2927 2929 2932 2937 2942 2946 2951 2954 2957 2959 2963 2960 2959 2958 2958 2956 2954 2951 2951 2951 2951 2953 2952 2953 2955 2952 2950 2950 2950 2950 2951 2953 2954 2955 2956 2957 2957 2958 2959 2959 2960 2960 2961 2962
2934 2934 2937 2941 2945 2949 2953 2956 2957 2958 2959 2958 2956 2957 2956 2957 2954 2952 2952 2950 2950 2949 2951 2950 2948 2944 2945 2946 2946 2948 2949 2950 2950 2951 2952 2951 2952 2954 2955 2956 2957 2958 2960 2962
2939 2938 2940 2944 2948 2952 2954 2955 2957 2957 2957 2954 2953 2953 2953 2954 2954 2953 2952 2950 2949 2948 2950 2949 2946 2943 2942 2941 2941 2943 2945 2947 2949 2949 2949 2950 2950 2952 2952 2953 2955 2958 2959 2961
2942 2941 2944 2947 2951 2952 2953 2954 2955 2953 2954 2951 2951 2951 2951 2951 2951 2952 2951 2950 2949 2948 2948 2947 2945 2945 2942 2940 2938 2939 2943 2946 2947 2948 2948 2948 2950 2952 2953 2955 2957 2959 2961 2962
2942 2945 2946 2948 2950 2950 2949 2949 2950 2950 2950 2950 2950 2950 2950 2950 2951 2951 2950 2949 2948 2948 2947 2946 2946 2944 2941 2939 2939 2940 2942 2944 2946 2948 2949 2950 2951 2952 2954 2956 2958 2960 2962 2964
2943 2945 2946 2947 2945 2945 2945 2946 2947 2949 2949 2950 2950 2950 2950 2950 2951 2950 2949 2949 2947 2946 2946 2947 2944 2941 2939 2938 2939 2940 2942 2944 2945 2946 2948 2950 2950 2952 2953 2955 2957 2959 2962 2964
2942 2943 2943 2942 2943 2943 2944 2945 2945 2947 2947 2949 2950 2951 2951 2950 2950 2948 2948 2947 2946 2946 2947 2946 2944 2941 2939 2938 2938 2938 2939 2941 2943 2945 2946 2948 2949 2951 2952 2954 2955 2957 2960 2961
2939 2938 2938 2938 2940 2941 2942 2942 2943 2944 2946 2947 2949 2950 2950 2949 2948 2946 2945 2945 2945 2945 2945 2945 2943 2942 2941 2939 2938 2937 2937 2938 2940 2942 2943 2945 2946 2948 2950 2952 2954 2956 2958 2960
2934 2934 2935 2936 2937 2937 2938 2939 2941 2942 2943 2944 2947 2947 2948 2947 2945 2944 2943 2943 2944 2944 2944 2943 2943 2942 2941 2940 2939 2938 2937 2937 2937 2938 2940 2942 2944 2945 2947 2949 2951 2953 2954 2956